This is the latest recevied weather packets stored in our database for station/object KO5MO-4. If no packets are shown the sender has not sent any weather packets the latest 10 day(s).
| Time | Temp. | Humidity | Pressure | Rain* | Wind** | Luminosity | Snow |
|---|---|---|---|---|---|---|---|
| 1777213560 | 19.44° C | 37% | 1006.9 hPa | 0 mm | - | - | - |
| 1777213260 | 18.89° C | 38% | 1006.8 hPa | 0 mm | - | - | - |
| 1777212660 | 18.89° C | 39% | 1006.4 hPa | 0 mm | - | - | - |
| 1777212360 | 18.89° C | 39% | 1006.3 hPa | 0 mm | - | - | - |
| 1777212060 | 18.89° C | 39% | 1006.2 hPa | 0 mm | - | - | - |
| 1777211460 | 18.33° C | 40% | 1006.1 hPa | 0 mm | - | - | - |
| 1777210860 | 17.78° C | 41% | 1006 hPa | 0 mm | - | - | - |
| 1777209660 | 17.78° C | 40% | 1005.7 hPa | 0 mm | - | - | - |
| 1777209060 | 17.78° C | 39% | 1005.7 hPa | 0 mm | - | - | - |
| 1777208760 | 17.78° C | 38% | 1005.5 hPa | 0 mm | - | - | - |
| 1777208460 | 18.33° C | 38% | 1005.5 hPa | 0 mm | - | - | - |
| 1777207260 | 18.33° C | 38% | 1005.2 hPa | 0 mm | - | - | - |
| 1777206960 | 18.33° C | 38% | 1005.1 hPa | 0 mm | - | - | - |
| 1777206660 | 18.33° C | 38% | 1005.1 hPa | 0 mm | - | - | - |
| 1777205760 | 18.33° C | 38% | 1005 hPa | 0 mm | - | - | - |
| 1777205460 | 18.33° C | 38% | 1005 hPa | 0 mm | - | - | - |
| 1777204860 | 18.33° C | 38% | 1004.9 hPa | 0 mm | - | - | - |
| 1777204560 | 18.33° C | 38% | 1004.9 hPa | 0 mm | - | - | - |
| 1777204260 | 18.33° C | 38% | 1004.8 hPa | 0 mm | - | - | - |
| 1777203960 | 18.33° C | 38% | 1004.8 hPa | 0 mm | - | - | - |
| 1777203360 | 18.33° C | 38% | 1004.8 hPa | 0 mm | - | - | - |
| 1777203060 | 18.33° C | 38% | 1004.8 hPa | 0 mm | - | - | - |
| 1777201560 | 18.33° C | 37% | 1004.5 hPa | 0 mm | - | - | - |
| 1777200660 | 19.44° C | 36% | 1004.3 hPa | 0 mm | - | - | - |
| 1777199160 | 20.56° C | 34% | 1003.9 hPa | 0 mm | - | - | - |
* Rain latest hour (hover to see other rain measurements)
** Current wind speed in m/s (hover to see current wind gust speed)